owner,sensor,date,latitude,longitude,vertical_datum,wind_speed,wind_to_direction,wind_speed_of_gust,qcFlag 
TCOON,ioos:station:TCOON:068:1,2009-04-01T00:00:00Z,27.2970,-97.4049,0.0,6.8,29.0,8.2,'11111222,11111222,11111222' 
TCOON,ioos:station:TCOON:068:1,2009-04-01T01:00:00Z,27.2970,-97.4049,0.0,6.2,38.0,7.1,'11111222,11111222,11111222' 
TCOON,ioos:station:TCOON:068:1,2009-04-01T03:00:00Z,27.2970,-97.4049,0.0,5.5,39.0,6.6,'11111222,11111222,11111222' 
TCOON,ioos:station:TCOON:068:1,2009-04-01T04:00:00Z,27.2970,-97.4049,0.0,5.1,40.0,6.0,'11111222,11111222,11111222' 
TCOON,ioos:station:TCOON:068:1,2009-04-01T05:00:00Z,27.2970,-97.4049,0.0,6.6,57.0,7.9,'11111222,11111222,11111222' 
TCOON,ioos:station:TCOON:068:1,2009-04-01T06:00:00Z,27.2970,-97.4049,0.0,1.6,261.0,3.0,'11111222,11111222,11111222' 
TCOON,ioos:station:TCOON:068:1,2009-04-01T07:00:00Z,27.2970,-97.4049,0.0,3.9,101.0,4.3,'11111222,11111222,11111222' 
TCOON,ioos:station:TCOON:068:1,2009-04-01T08:00:00Z,27.2970,-97.4049,0.0,4.9,44.0,5.8,'11111222,11111222,11111222' 
TCOON,ioos:station:TCOON:068:1,2009-04-01T09:00:00Z,27.2970,-97.4049,0.0,3.4,46.0,3.9,'11111222,11111222,11111222' 
TCOON,ioos:station:TCOON:068:1,2009-04-01T10:00:00Z,27.2970,-97.4049,0.0,5.2,57.0,6.2,'11111222,11111222,11111222' 
TCOON,ioos:station:TCOON:068:1,2009-04-01T11:00:00Z,27.2970,-97.4049,0.0,7.3,73.0,8.5,'11111222,11111222,11111222' 
TCOON,ioos:station:TCOON:068:1,2009-04-01T12:00:00Z,27.2970,-97.4049,0.0,8.3,82.0,9.5,'11111222,11111222,11111222' 
TCOON,ioos:station:TCOON:068:1,2009-04-01T13:00:00Z,27.2970,-97.4049,0.0,6.6,105.0,8.1,'11111222,11111222,11111222' 
TCOON,ioos:station:TCOON:068:1,2009-04-01T14:00:00Z,27.2970,-97.4049,0.0,8.9,84.0,9.9,'11111222,11111222,11111222' 
TCOON,ioos:station:TCOON:068:1,2009-04-01T15:00:00Z,27.2970,-97.4049,0.0,6.9,99.0,8.6,'11111222,11111222,11111222' 
TCOON,ioos:station:TCOON:068:1,2009-04-01T16:00:00Z,27.2970,-97.4049,0.0,9.1,97.0,10.8,'11111222,11111222,11111222' 
TCOON,ioos:station:TCOON:068:1,2009-04-01T17:00:00Z,27.2970,-97.4049,0.0,10.4,108.0,11.9,'11111222,11111222,11111222' 
TCOON,ioos:station:TCOON:068:1,2009-04-01T18:00:00Z,27.2970,-97.4049,0.0,8.7,113.0,10.8,'11111222,11111222,11111222' 
TCOON,ioos:station:TCOON:068:1,2009-04-01T19:00:00Z,27.2970,-97.4049,0.0,7.0,120.0,8.8,'11111222,11111222,11111222' 
TCOON,ioos:station:TCOON:068:1,2009-04-01T20:00:00Z,27.2970,-97.4049,0.0,7.0,130.0,9.7,'11111222,11111222,11111222' 
TCOON,ioos:station:TCOON:068:1,2009-04-01T21:00:00Z,27.2970,-97.4049,0.0,6.7,120.0,8.9,'11111222,11111222,11111222' 
TCOON,ioos:station:TCOON:068:1,2009-04-01T22:00:00Z,27.2970,-97.4049,0.0,11.0,125.0,13.1,'11111222,11111222,11111222' 
TCOON,ioos:station:TCOON:068:1,2009-04-01T23:00:00Z,27.2970,-97.4049,0.0,9.0,131.0,11.1,'11111222,11111222,11111222' 
TCOON,ioos:station:TCOON:068:1,2009-04-02T00:00:00Z,27.2970,-97.4049,0.0,7.6,124.0,9.1,'11111222,11111222,11111222' 
TCOON,ioos:station:TCOON:068:1,2009-04-02T01:00:00Z,27.2970,-97.4049,0.0,6.3,137.0,8.2,'11111222,11111222,11111222' 
TCOON,ioos:station:TCOON:068:1,2009-04-02T02:00:00Z,27.2970,-97.4049,0.0,8.2,139.0,9.5,'11111222,11111222,11111222' 
TCOON,ioos:station:TCOON:068:1,2009-04-02T03:00:00Z,27.2970,-97.4049,0.0,9.4,141.0,11.4,'11111222,11111222,11111222' 
TCOON,ioos:station:TCOON:068:1,2009-04-02T04:00:00Z,27.2970,-97.4049,0.0,8.0,146.0,11.7,'11111222,11111222,11111222' 
TCOON,ioos:station:TCOON:068:1,2009-04-02T05:00:00Z,27.2970,-97.4049,0.0,9.1,166.0,11.1,'11111222,11111222,11111222' 
TCOON,ioos:station:TCOON:068:1,2009-04-02T06:00:00Z,27.2970,-97.4049,0.0,8.3,156.0,9.9,'11111222,11111222,11111222' 
TCOON,ioos:station:TCOON:068:1,2009-04-02T07:00:00Z,27.2970,-97.4049,0.0,6.2,152.0,7.8,'11111222,11111222,11111222' 
TCOON,ioos:station:TCOON:068:1,2009-04-02T08:00:00Z,27.2970,-97.4049,0.0,6.9,143.0,8.9,'11111222,11111222,11111222' 
TCOON,ioos:station:TCOON:068:1,2009-04-02T09:00:00Z,27.2970,-97.4049,0.0,3.9,184.0,4.4,'11111222,11111222,11111222' 
TCOON,ioos:station:TCOON:068:1,2009-04-02T10:00:00Z,27.2970,-97.4049,0.0,5.7,181.0,6.4,'11111222,11111222,11111222' 
TCOON,ioos:station:TCOON:068:1,2009-04-02T11:00:00Z,27.2970,-97.4049,0.0,4.9,195.0,5.4,'11111222,11111222,11111222' 
TCOON,ioos:station:TCOON:068:1,2009-04-02T12:00:00Z,27.2970,-97.4049,0.0,4.8,211.0,5.4,'11111222,11111222,11111222' 
TCOON,ioos:station:TCOON:068:1,2009-04-02T13:00:00Z,27.2970,-97.4049,0.0,5.1,219.0,5.9,'11111222,11111222,11111222' 
TCOON,ioos:station:TCOON:068:1,2009-04-02T14:00:00Z,27.2970,-97.4049,0.0,8.4,275.0,9.5,'11111222,11111222,11111222' 
TCOON,ioos:station:TCOON:068:1,2009-04-02T15:00:00Z,27.2970,-97.4049,0.0,15.4,320.0,17.6,'11111222,11111222,11111222' 
TCOON,ioos:station:TCOON:068:1,2009-04-02T16:00:00Z,27.2970,-97.4049,0.0,16.7,324.0,19.3,'11111222,11111222,11111222' 
TCOON,ioos:station:TCOON:068:1,2009-04-02T17:00:00Z,27.2970,-97.4049,0.0,12.4,317.0,14.9,'11111222,11111222,11111222' 
TCOON,ioos:station:TCOON:068:1,2009-04-02T18:00:00Z,27.2970,-97.4049,0.0,15.1,307.0,17.9,'11111222,11111222,11111222' 
TCOON,ioos:station:TCOON:068:1,2009-04-02T19:00:00Z,27.2970,-97.4049,0.0,19.5,308.0,23.6,'11111222,11111222,11111222' 
TCOON,ioos:station:TCOON:068:1,2009-04-02T20:00:00Z,27.2970,-97.4049,0.0,14.9,318.0,18.0,'11111222,11111222,11111222' 
TCOON,ioos:station:TCOON:068:1,2009-04-02T21:00:00Z,27.2970,-97.4049,0.0,13.4,313.0,16.6,'11111222,11111222,11111222' 
TCOON,ioos:station:TCOON:068:1,2009-04-02T22:00:00Z,27.2970,-97.4049,0.0,13.3,315.0,16.8,'11111222,11111222,11111222' 
TCOON,ioos:station:TCOON:068:1,2009-04-02T23:00:00Z,27.2970,-97.4049,0.0,8.2,324.0,10.2,'11111222,11111222,11111222' 
TCOON,ioos:station:TCOON:068:1,2009-04-03T00:00:00Z,27.2970,-97.4049,0.0,7.1,336.0,8.2,'11111222,11111222,11111222' 
TCOON,ioos:station:TCOON:068:1,2009-04-03T01:00:00Z,27.2970,-97.4049,0.0,7.1,343.0,7.8,'11111222,11111222,11111222' 
TCOON,ioos:station:TCOON:068:1,2009-04-03T02:00:00Z,27.2970,-97.4049,0.0,3.8,348.0,4.4,'11111222,11111222,11111222' 
TCOON,ioos:station:TCOON:068:1,2009-04-03T03:00:00Z,27.2970,-97.4049,0.0,4.7,11.0,99.0,'11111222,11111222,11144222' 
TCOON,ioos:station:TCOON:068:1,2009-04-03T04:00:00Z,27.2970,-97.4049,0.0,3.3,39.0,3.6,'11111222,11111222,11111222' 
TCOON,ioos:station:TCOON:068:1,2009-04-03T05:00:00Z,27.2970,-97.4049,0.0,4.2,20.0,5.2,'11111222,11111222,11111222' 
TCOON,ioos:station:TCOON:068:1,2009-04-03T06:00:00Z,27.2970,-97.4049,0.0,5.8,23.0,7.6,'11111222,11111222,11111222' 
TCOON,ioos:station:TCOON:068:1,2009-04-03T07:00:00Z,27.2970,-97.4049,0.0,3.2,42.0,3.8,'11111222,11111222,11111222' 
TCOON,ioos:station:TCOON:068:1,2009-04-03T08:00:00Z,27.2970,-97.4049,0.0,6.5,40.0,7.4,'11111222,11111222,11111222' 
TCOON,ioos:station:TCOON:068:1,2009-04-03T09:00:00Z,27.2970,-97.4049,0.0,5.9,44.0,6.8,'11111222,11111222,11111222' 
TCOON,ioos:station:TCOON:068:1,2009-04-03T10:00:00Z,27.2970,-97.4049,0.0,6.2,54.0,7.0,'11111222,11111222,11111222' 
TCOON,ioos:station:TCOON:068:1,2009-04-03T11:00:00Z,27.2970,-97.4049,0.0,5.1,71.0,5.6,'11111222,11111222,11111222' 
TCOON,ioos:station:TCOON:068:1,2009-04-03T12:00:00Z,27.2970,-97.4049,0.0,4.2,80.0,5.0,'11111222,11111222,11111222' 
TCOON,ioos:station:TCOON:068:1,2009-04-03T13:00:00Z,27.2970,-97.4049,0.0,4.1,83.0,4.7,'11111222,11111222,11111222' 
TCOON,ioos:station:TCOON:068:1,2009-04-03T14:00:00Z,27.2970,-97.4049,0.0,5.2,88.0,6.1,'11111222,11111222,11111222' 
TCOON,ioos:station:TCOON:068:1,2009-04-03T15:00:00Z,27.2970,-97.4049,0.0,5.6,95.0,6.8,'11111222,11111222,11111222' 
TCOON,ioos:station:TCOON:068:1,2009-04-03T16:00:00Z,27.2970,-97.4049,0.0,6.2,97.0,7.3,'11111222,11111222,11111222' 
TCOON,ioos:station:TCOON:068:1,2009-04-03T17:00:00Z,27.2970,-97.4049,0.0,6.0,111.0,8.3,'11111222,11111222,11111222' 
TCOON,ioos:station:TCOON:068:1,2009-04-03T18:00:00Z,27.2970,-97.4049,0.0,7.4,97.0,8.8,'11111222,11111222,11111222' 
TCOON,ioos:station:TCOON:068:1,2009-04-03T19:00:00Z,27.2970,-97.4049,0.0,8.1,101.0,9.2,'11111222,11111222,11111222' 
TCOON,ioos:station:TCOON:068:1,2009-04-03T20:00:00Z,27.2970,-97.4049,0.0,7.8,95.0,9.8,'11111222,11111222,11111222' 
TCOON,ioos:station:TCOON:068:1,2009-04-03T21:00:00Z,27.2970,-97.4049,0.0,7.8,115.0,9.6,'11111222,11111222,11111222' 
TCOON,ioos:station:TCOON:068:1,2009-04-03T22:00:00Z,27.2970,-97.4049,0.0,7.9,112.0,9.2,'11111222,11111222,11111222' 
TCOON,ioos:station:TCOON:068:1,2009-04-03T23:00:00Z,27.2970,-97.4049,0.0,7.8,111.0,9.6,'11111222,11111222,11111222' 
TCOON,ioos:station:TCOON:068:1,2009-04-04T00:00:00Z,27.2970,-97.4049,0.0,7.3,111.0,9.3,'11111222,11111222,11111222' 
TCOON,ioos:station:TCOON:068:1,2009-04-04T01:00:00Z,27.2970,-97.4049,0.0,6.0,112.0,7.6,'11111222,11111222,11111222' 
TCOON,ioos:station:TCOON:068:1,2009-04-04T02:00:00Z,27.2970,-97.4049,0.0,5.5,113.0,6.6,'11111222,11111222,11111222' 
TCOON,ioos:station:TCOON:068:1,2009-04-04T03:00:00Z,27.2970,-97.4049,0.0,5.6,115.0,7.1,'11111222,11111222,11111222' 
TCOON,ioos:station:TCOON:068:1,2009-04-04T04:00:00Z,27.2970,-97.4049,0.0,7.0,126.0,8.6,'11111222,11111222,11111222' 
TCOON,ioos:station:TCOON:068:1,2009-04-04T05:00:00Z,27.2970,-97.4049,0.0,6.2,127.0,7.9,'11111222,11111222,11111222' 
TCOON,ioos:station:TCOON:068:1,2009-04-04T06:00:00Z,27.2970,-97.4049,0.0,6.2,142.0,8.3,'11111222,11111222,11111222' 
TCOON,ioos:station:TCOON:068:1,2009-04-04T07:00:00Z,27.2970,-97.4049,0.0,6.0,140.0,7.5,'11111222,11111222,11111222' 
TCOON,ioos:station:TCOON:068:1,2009-04-04T08:00:00Z,27.2970,-97.4049,0.0,7.3,140.0,9.9,'11111222,11111222,11111222' 
TCOON,ioos:station:TCOON:068:1,2009-04-04T09:00:00Z,27.2970,-97.4049,0.0,7.8,140.0,10.3,'11111222,11111222,11111222' 
TCOON,ioos:station:TCOON:068:1,2009-04-04T10:00:00Z,27.2970,-97.4049,0.0,8.1,138.0,10.4,'11111222,11111222,11111222' 
TCOON,ioos:station:TCOON:068:1,2009-04-04T11:00:00Z,27.2970,-97.4049,0.0,6.3,137.0,7.7,'11111222,11111222,11111222' 
TCOON,ioos:station:TCOON:068:1,2009-04-04T12:00:00Z,27.2970,-97.4049,0.0,7.6,133.0,9.0,'11111222,11111222,11111222' 
TCOON,ioos:station:TCOON:068:1,2009-04-04T13:00:00Z,27.2970,-97.4049,0.0,6.4,135.0,7.7,'11111222,11111222,11111222' 
TCOON,ioos:station:TCOON:068:1,2009-04-04T14:00:00Z,27.2970,-97.4049,0.0,7.2,137.0,8.7,'11111222,11111222,11111222' 
TCOON,ioos:station:TCOON:068:1,2009-04-04T15:00:00Z,27.2970,-97.4049,0.0,7.5,145.0,8.7,'11111222,11111222,11111222' 
TCOON,ioos:station:TCOON:068:1,2009-04-04T16:00:00Z,27.2970,-97.4049,0.0,6.7,147.0,8.2,'11111222,11111222,11111222' 
TCOON,ioos:station:TCOON:068:1,2009-04-04T17:00:00Z,27.2970,-97.4049,0.0,8.3,142.0,10.3,'11111222,11111222,11111222' 
TCOON,ioos:station:TCOON:068:1,2009-04-04T18:00:00Z,27.2970,-97.4049,0.0,7.9,134.0,9.8,'11111222,11111222,11111222' 
TCOON,ioos:station:TCOON:068:1,2009-04-04T19:00:00Z,27.2970,-97.4049,0.0,8.4,130.0,10.6,'11111222,11111222,11111222' 
TCOON,ioos:station:TCOON:068:1,2009-04-04T20:00:00Z,27.2970,-97.4049,0.0,9.2,127.0,11.1,'11111222,11111222,11111222' 
TCOON,ioos:station:TCOON:068:1,2009-04-04T21:00:00Z,27.2970,-97.4049,0.0,8.6,124.0,10.1,'11111222,11111222,11111222' 
TCOON,ioos:station:TCOON:068:1,2009-04-04T22:00:00Z,27.2970,-97.4049,0.0,8.8,123.0,11.6,'11111222,11111222,11111222' 
TCOON,ioos:station:TCOON:068:1,2009-04-04T23:00:00Z,27.2970,-97.4049,0.0,9.0,124.0,12.0,'11111222,11111222,11111222' 
TCOON,ioos:station:TCOON:068:1,2009-04-05T00:00:00Z,27.2970,-97.4049,0.0,8.3,118.0,10.3,'11111222,11111222,11111222' 
TCOON,ioos:station:TCOON:068:1,2009-04-05T01:00:00Z,27.2970,-97.4049,0.0,7.7,108.0,9.2,'11111222,11111222,11111222' 
TCOON,ioos:station:TCOON:068:1,2009-04-05T02:00:00Z,27.2970,-97.4049,0.0,5.4,115.0,7.4,'11111222,11111222,11111222' 
TCOON,ioos:station:TCOON:068:1,2009-04-05T03:00:00Z,27.2970,-97.4049,0.0,6.3,123.0,7.3,'11111222,11111222,11111222' 
TCOON,ioos:station:TCOON:068:1,2009-04-05T04:00:00Z,27.2970,-97.4049,0.0,5.4,122.0,7.2,'11111222,11111222,11111222' 
TCOON,ioos:station:TCOON:068:1,2009-04-05T05:00:00Z,27.2970,-97.4049,0.0,6.0,140.0,8.4,'11111222,11111222,11111222' 
TCOON,ioos:station:TCOON:068:1,2009-04-05T06:00:00Z,27.2970,-97.4049,0.0,6.1,144.0,7.4,'11111222,11111222,11111222' 
TCOON,ioos:station:TCOON:068:1,2009-04-05T07:00:00Z,27.2970,-97.4049,0.0,5.7,145.0,7.3,'11111222,11111222,11111222' 
TCOON,ioos:station:TCOON:068:1,2009-04-05T08:00:00Z,27.2970,-97.4049,0.0,5.7,157.0,6.6,'11111222,11111222,11111222' 
TCOON,ioos:station:TCOON:068:1,2009-04-05T09:00:00Z,27.2970,-97.4049,0.0,4.9,147.0,6.2,'11111222,11111222,11111222' 
TCOON,ioos:station:TCOON:068:1,2009-04-05T10:00:00Z,27.2970,-97.4049,0.0,4.9,143.0,6.4,'11111222,11111222,11111222' 
TCOON,ioos:station:TCOON:068:1,2009-04-05T11:00:00Z,27.2970,-97.4049,0.0,4.1,145.0,4.8,'11111222,11111222,11111222' 
TCOON,ioos:station:TCOON:068:1,2009-04-05T12:00:00Z,27.2970,-97.4049,0.0,2.9,155.0,3.5,'11111222,11111222,11111222' 
TCOON,ioos:station:TCOON:068:1,2009-04-05T13:00:00Z,27.2970,-97.4049,0.0,3.2,175.0,3.6,'11111222,11111222,11111222' 
TCOON,ioos:station:TCOON:068:1,2009-04-05T14:00:00Z,27.2970,-97.4049,0.0,3.8,334.0,5.2,'11111222,11111222,11111222' 
TCOON,ioos:station:TCOON:068:1,2009-04-05T15:00:00Z,27.2970,-97.4049,0.0,5.7,343.0,6.9,'11111222,11111222,11111222' 
TCOON,ioos:station:TCOON:068:1,2009-04-05T16:00:00Z,27.2970,-97.4049,0.0,7.3,15.0,8.3,'11111222,11111222,11111222' 
TCOON,ioos:station:TCOON:068:1,2009-04-05T17:00:00Z,27.2970,-97.4049,0.0,6.2,40.0,7.2,'11111222,11111222,11111222' 
TCOON,ioos:station:TCOON:068:1,2009-04-05T18:00:00Z,27.2970,-97.4049,0.0,6.4,69.0,7.3,'11111222,11111222,11111222' 
TCOON,ioos:station:TCOON:068:1,2009-04-05T19:00:00Z,27.2970,-97.4049,0.0,7.5,54.0,8.8,'11111222,11111222,11111222' 
TCOON,ioos:station:TCOON:068:1,2009-04-05T20:00:00Z,27.2970,-97.4049,0.0,9.8,22.0,12.9,'11111222,11111222,11111222' 
TCOON,ioos:station:TCOON:068:1,2009-04-05T21:00:00Z,27.2970,-97.4049,0.0,11.3,14.0,14.4,'11111222,11111222,11111222' 
TCOON,ioos:station:TCOON:068:1,2009-04-05T22:00:00Z,27.2970,-97.4049,0.0,9.5,14.0,12.7,'11111222,11111222,11111222' 
TCOON,ioos:station:TCOON:068:1,2009-04-05T23:00:00Z,27.2970,-97.4049,0.0,10.9,360.0,12.5,'11111222,11144222,11111222' 
TCOON,ioos:station:TCOON:068:1,2009-04-06T00:00:00Z,27.2970,-97.4049,0.0,9.3,8.0,12.0,'11111222,11111222,11111222' 
TCOON,ioos:station:TCOON:068:1,2009-04-06T01:00:00Z,27.2970,-97.4049,0.0,8.8,5.0,10.6,'11111222,11111222,11111222' 
TCOON,ioos:station:TCOON:068:1,2009-04-06T02:00:00Z,27.2970,-97.4049,0.0,6.2,354.0,7.0,'11111222,11111222,11111222' 
TCOON,ioos:station:TCOON:068:1,2009-04-06T03:00:00Z,27.2970,-97.4049,0.0,5.9,355.0,6.9,'11111222,11111222,11111222' 
TCOON,ioos:station:TCOON:068:1,2009-04-06T04:00:00Z,27.2970,-97.4049,0.0,8.5,359.0,10.1,'11111222,11111222,11111222' 
TCOON,ioos:station:TCOON:068:1,2009-04-06T05:00:00Z,27.2970,-97.4049,0.0,10.5,357.0,12.8,'11111222,11111222,11111222' 
TCOON,ioos:station:TCOON:068:1,2009-04-06T06:00:00Z,27.2970,-97.4049,0.0,10.1,360.0,11.5,'11111222,11144222,11111222' 
TCOON,ioos:station:TCOON:068:1,2009-04-06T07:00:00Z,27.2970,-97.4049,0.0,11.0,358.0,13.0,'11111222,11111222,11111222' 
TCOON,ioos:station:TCOON:068:1,2009-04-06T08:00:00Z,27.2970,-97.4049,0.0,8.3,351.0,10.9,'11111222,11111222,11111222' 
TCOON,ioos:station:TCOON:068:1,2009-04-06T09:00:00Z,27.2970,-97.4049,0.0,9.6,352.0,11.9,'11111222,11111222,11111222' 
TCOON,ioos:station:TCOON:068:1,2009-04-06T10:00:00Z,27.2970,-97.4049,0.0,7.3,345.0,8.4,'11111222,11111222,11111222' 
TCOON,ioos:station:TCOON:068:1,2009-04-06T11:00:00Z,27.2970,-97.4049,0.0,5.8,339.0,6.8,'11111222,11111222,11111222' 
TCOON,ioos:station:TCOON:068:1,2009-04-06T12:00:00Z,27.2970,-97.4049,0.0,7.8,338.0,9.1,'11111222,11111222,11111222' 
TCOON,ioos:station:TCOON:068:1,2009-04-06T13:00:00Z,27.2970,-97.4049,0.0,9.3,344.0,11.3,'11111222,11111222,11111222' 
TCOON,ioos:station:TCOON:068:1,2009-04-06T14:00:00Z,27.2970,-97.4049,0.0,11.9,353.0,16.7,'11111222,11111222,11111222' 
TCOON,ioos:station:TCOON:068:1,2009-04-06T15:00:00Z,27.2970,-97.4049,0.0,11.6,358.0,22.2,'11111222,11111222,11111222' 
TCOON,ioos:station:TCOON:068:1,2009-04-06T16:00:00Z,27.2970,-97.4049,0.0,9.4,5.0,12.0,'11111222,11111222,11111222' 
TCOON,ioos:station:TCOON:068:1,2009-04-06T17:00:00Z,27.2970,-97.4049,0.0,8.0,329.0,9.7,'11111222,11111222,11111222' 
TCOON,ioos:station:TCOON:068:1,2009-04-06T18:00:00Z,27.2970,-97.4049,0.0,7.1,23.0,9.4,'11111222,11111222,11111222' 
TCOON,ioos:station:TCOON:068:1,2009-04-06T19:00:00Z,27.2970,-97.4049,0.0,6.2,11.0,8.3,'11111222,11111222,11111222' 
TCOON,ioos:station:TCOON:068:1,2009-04-06T20:00:00Z,27.2970,-97.4049,0.0,6.4,22.0,9.5,'11111222,11111222,11111222' 
TCOON,ioos:station:TCOON:068:1,2009-04-06T21:00:00Z,27.2970,-97.4049,0.0,7.5,30.0,8.8,'11111222,11111222,11111222' 
TCOON,ioos:station:TCOON:068:1,2009-04-06T22:00:00Z,27.2970,-97.4049,0.0,7.8,21.0,9.3,'11111222,11111222,11111222' 
TCOON,ioos:station:TCOON:068:1,2009-04-06T23:00:00Z,27.2970,-97.4049,0.0,6.2,345.0,9.0,'11111222,11111222,11111222' 
TCOON,ioos:station:TCOON:068:1,2009-04-07T00:00:00Z,27.2970,-97.4049,0.0,6.6,336.0,7.7,'11111222,11111222,11111222' 
TCOON,ioos:station:TCOON:068:1,2009-04-07T01:00:00Z,27.2970,-97.4049,0.0,5.5,345.0,6.6,'11111222,11111222,11111222' 
TCOON,ioos:station:TCOON:068:1,2009-04-07T02:00:00Z,27.2970,-97.4049,0.0,4.3,350.0,4.9,'11111222,11111222,11111222' 
TCOON,ioos:station:TCOON:068:1,2009-04-07T03:00:00Z,27.2970,-97.4049,0.0,5.4,349.0,10.5,'11111222,11111222,11111222' 
TCOON,ioos:station:TCOON:068:1,2009-04-07T04:00:00Z,27.2970,-97.4049,0.0,5.4,353.0,6.3,'11111222,11111222,11111222' 
TCOON,ioos:station:TCOON:068:1,2009-04-07T05:00:00Z,27.2970,-97.4049,0.0,4.7,345.0,5.7,'11111222,11111222,11111222' 
TCOON,ioos:station:TCOON:068:1,2009-04-07T06:00:00Z,27.2970,-97.4049,0.0,4.0,355.0,4.4,'11111222,11111222,11111222' 
TCOON,ioos:station:TCOON:068:1,2009-04-07T07:00:00Z,27.2970,-97.4049,0.0,4.0,352.0,5.0,'11111222,11111222,11111222' 
TCOON,ioos:station:TCOON:068:1,2009-04-07T08:00:00Z,27.2970,-97.4049,0.0,4.1,355.0,4.8,'11111222,11111222,11111222' 
TCOON,ioos:station:TCOON:068:1,2009-04-07T09:00:00Z,27.2970,-97.4049,0.0,3.6,2.0,4.0,'11111222,11111222,11111222' 
TCOON,ioos:station:TCOON:068:1,2009-04-07T10:00:00Z,27.2970,-97.4049,0.0,2.4,348.0,2.7,'11111222,11111222,11111222' 
TCOON,ioos:station:TCOON:068:1,2009-04-07T11:00:00Z,27.2970,-97.4049,0.0,2.6,4.0,2.9,'11111222,11111222,11111222' 
TCOON,ioos:station:TCOON:068:1,2009-04-07T12:00:00Z,27.2970,-97.4049,0.0,3.1,352.0,3.4,'11111222,11111222,11111222' 
TCOON,ioos:station:TCOON:068:1,2009-04-07T13:00:00Z,27.2970,-97.4049,0.0,1.1,351.0,1.7,'11111222,11111222,11111222' 
TCOON,ioos:station:TCOON:068:1,2009-04-07T14:00:00Z,27.2970,-97.4049,0.0,0.7,291.0,1.1,'11111222,11111222,11111222' 
TCOON,ioos:station:TCOON:068:1,2009-04-07T15:00:00Z,27.2970,-97.4049,0.0,1.3,327.0,1.5,'11111222,11111222,11111222' 
TCOON,ioos:station:TCOON:068:1,2009-04-07T16:00:00Z,27.2970,-97.4049,0.0,2.7,357.0,3.2,'11111222,11111222,11111222' 
TCOON,ioos:station:TCOON:068:1,2009-04-07T17:00:00Z,27.2970,-97.4049,0.0,2.5,187.0,3.1,'11111222,11111222,11111222' 
TCOON,ioos:station:TCOON:068:1,2009-04-07T18:00:00Z,27.2970,-97.4049,0.0,2.7,143.0,5.1,'11111222,11111222,11111222' 
TCOON,ioos:station:TCOON:068:1,2009-04-07T19:00:00Z,27.2970,-97.4049,0.0,3.8,119.0,5.0,'11111222,11111222,11111222' 
TCOON,ioos:station:TCOON:068:1,2009-04-07T20:00:00Z,27.2970,-97.4049,0.0,5.8,103.0,8.0,'11111222,11111222,11111222' 
TCOON,ioos:station:TCOON:068:1,2009-04-07T21:00:00Z,27.2970,-97.4049,0.0,5.8,106.0,7.0,'11111222,11111222,11111222' 
TCOON,ioos:station:TCOON:068:1,2009-04-07T22:00:00Z,27.2970,-97.4049,0.0,7.2,117.0,8.8,'11111222,11111222,11111222' 
TCOON,ioos:station:TCOON:068:1,2009-04-08T01:00:00Z,27.2970,-97.4049,0.0,8.5,137.0,10.2,'11111222,11111222,11111222' 
TCOON,ioos:station:TCOON:068:1,2009-04-08T02:00:00Z,27.2970,-97.4049,0.0,7.6,140.0,9.0,'11111222,11111222,11111222' 
TCOON,ioos:station:TCOON:068:1,2009-04-08T03:00:00Z,27.2970,-97.4049,0.0,8.4,147.0,10.3,'11111222,11111222,11111222' 
TCOON,ioos:station:TCOON:068:1,2009-04-08T04:00:00Z,27.2970,-97.4049,0.0,9.1,157.0,10.8,'11111222,11111222,11111222' 
TCOON,ioos:station:TCOON:068:1,2009-04-08T05:00:00Z,27.2970,-97.4049,0.0,9.0,161.0,10.5,'11111222,11111222,11111222' 
TCOON,ioos:station:TCOON:068:1,2009-04-08T06:00:00Z,27.2970,-97.4049,0.0,10.2,171.0,12.0,'11111222,11111222,11111222' 
TCOON,ioos:station:TCOON:068:1,2009-04-08T07:00:00Z,27.2970,-97.4049,0.0,8.8,171.0,10.5,'11111222,11111222,11111222' 
TCOON,ioos:station:TCOON:068:1,2009-04-08T08:00:00Z,27.2970,-97.4049,0.0,7.6,172.0,10.1,'11111222,11111222,11111222' 
TCOON,ioos:station:TCOON:068:1,2009-04-08T09:00:00Z,27.2970,-97.4049,0.0,7.1,168.0,8.4,'11111222,11111222,11111222' 
TCOON,ioos:station:TCOON:068:1,2009-04-08T10:00:00Z,27.2970,-97.4049,0.0,6.5,167.0,18.2,'11111222,11111222,11111222' 
TCOON,ioos:station:TCOON:068:1,2009-04-08T11:00:00Z,27.2970,-97.4049,0.0,6.3,164.0,8.0,'11111222,11111222,11111222' 
TCOON,ioos:station:TCOON:068:1,2009-04-08T12:00:00Z,27.2970,-97.4049,0.0,6.1,165.0,7.5,'11111222,11111222,11111222' 
TCOON,ioos:station:TCOON:068:1,2009-04-08T13:00:00Z,27.2970,-97.4049,0.0,6.3,164.0,7.6,'11111222,11111222,11111222' 
TCOON,ioos:station:TCOON:068:1,2009-04-08T14:00:00Z,27.2970,-97.4049,0.0,7.5,169.0,8.8,'11111222,11111222,11111222' 
TCOON,ioos:station:TCOON:068:1,2009-04-09T14:00:00Z,27.2970,-97.4049,0.0,9.7,169.0,11.2,'11111222,11111222,11111222' 
TCOON,ioos:station:TCOON:068:1,2009-04-09T15:00:00Z,27.2970,-97.4049,0.0,9.0,166.0,11.4,'11111222,11111222,11111222' 
TCOON,ioos:station:TCOON:068:1,2009-04-09T16:00:00Z,27.2970,-97.4049,0.0,8.1,165.0,9.8,'11111222,11111222,11111222' 
TCOON,ioos:station:TCOON:068:1,2009-04-09T17:00:00Z,27.2970,-97.4049,0.0,9.3,158.0,10.9,'11111222,11111222,11111222' 
TCOON,ioos:station:TCOON:068:1,2009-04-09T18:00:00Z,27.2970,-97.4049,0.0,7.7,142.0,10.3,'11111222,11111222,11111222' 
TCOON,ioos:station:TCOON:068:1,2009-04-09T19:00:00Z,27.2970,-97.4049,0.0,9.5,144.0,11.3,'11111222,11111222,11111222' 
TCOON,ioos:station:TCOON:068:1,2009-04-09T20:00:00Z,27.2970,-97.4049,0.0,10.5,144.0,13.3,'11111222,11111222,11111222' 
TCOON,ioos:station:TCOON:068:1,2009-04-09T21:00:00Z,27.2970,-97.4049,0.0,10.3,142.0,12.5,'11111222,11111222,11111222' 
TCOON,ioos:station:TCOON:068:1,2009-04-09T22:00:00Z,27.2970,-97.4049,0.0,12.1,144.0,99.0,'11111222,11111222,11144222' 
TCOON,ioos:station:TCOON:068:1,2009-04-09T23:00:00Z,27.2970,-97.4049,0.0,12.7,143.0,15.2,'11111222,11111222,11111222' 
TCOON,ioos:station:TCOON:068:1,2009-04-10T00:00:00Z,27.2970,-97.4049,0.0,12.3,145.0,15.0,'11111222,11111222,11111222' 
TCOON,ioos:station:TCOON:068:1,2009-04-10T01:00:00Z,27.2970,-97.4049,0.0,10.1,142.0,13.3,'11111222,11111222,11111222' 
TCOON,ioos:station:TCOON:068:1,2009-04-10T02:00:00Z,27.2970,-97.4049,0.0,10.0,145.0,12.0,'11111222,11111222,11111222' 
TCOON,ioos:station:TCOON:068:1,2009-04-10T03:00:00Z,27.2970,-97.4049,0.0,9.2,145.0,11.6,'11111222,11111222,11111222' 
TCOON,ioos:station:TCOON:068:1,2009-04-10T04:00:00Z,27.2970,-97.4049,0.0,7.8,149.0,9.6,'11111222,11111222,11111222' 
TCOON,ioos:station:TCOON:068:1,2009-04-10T05:00:00Z,27.2970,-97.4049,0.0,8.2,149.0,25.0,'11111222,11111222,11111222' 
TCOON,ioos:station:TCOON:068:1,2009-04-10T06:00:00Z,27.2970,-97.4049,0.0,8.7,154.0,10.1,'11111222,11111222,11111222' 
TCOON,ioos:station:TCOON:068:1,2009-04-10T07:00:00Z,27.2970,-97.4049,0.0,9.2,159.0,15.4,'11111222,11111222,11111222' 
TCOON,ioos:station:TCOON:068:1,2009-04-10T08:00:00Z,27.2970,-97.4049,0.0,6.7,159.0,7.6,'11111222,11111222,11111222' 
TCOON,ioos:station:TCOON:068:1,2009-04-10T09:00:00Z,27.2970,-97.4049,0.0,5.1,160.0,6.1,'11111222,11111222,11111222' 
TCOON,ioos:station:TCOON:068:1,2009-04-10T10:00:00Z,27.2970,-97.4049,0.0,4.9,163.0,6.1,'11111222,11111222,11111222' 
TCOON,ioos:station:TCOON:068:1,2009-04-10T11:00:00Z,27.2970,-97.4049,0.0,4.1,154.0,4.9,'11111222,11111222,11111222' 
TCOON,ioos:station:TCOON:068:1,2009-04-10T12:00:00Z,27.2970,-97.4049,0.0,1.3,153.0,1.5,'11111222,11111222,11111222' 